Hourly Data Report for July 13, 2017

All times are specified in Local Standard Time (LST). Add 1 hour to adjust for Daylight Saving Time where and when it is observed.

LUTSELK'E CS
NORTHWEST TERRITORIES

62°24'56.030" N
110°41'25.070" W
178.90 m
220L002
71529
XLU

Download Data

Hourly Data (July 2017)
Hourly Data Report for July 13, 2017
Temp Definition
°C
Dew Point Temp Definition
°C
Rel Hum Definition
%
Wind Dir Definition
10's deg

Wind Spd Definition
km/h
Visibility Definition
km
Stn Press Definition
kPa
Hmdx Definition


Wind Chill Definition


Weather Definition


TIME
00:00 13.1 6.7 65 LegendMM LegendMM   98.98     LegendNANA
01:00 12.6 8.3 75 LegendMM LegendMM   99.03     LegendNANA
02:00 11.1 8.3 83 LegendMM LegendMM   99.07     LegendNANA
03:00 12.6 9.9 84 LegendMM LegendMM   99.10     LegendNANA
04:00 12.7 9.9 83 LegendMM LegendMM   99.11     LegendNANA
05:00 13.4 9.9 79 LegendMM LegendMM   99.13     LegendNANA
06:00 13.1 9.2 77 LegendMM LegendMM   99.18     LegendNANA
07:00 13.3 9.2 76 LegendMM LegendMM   99.19     LegendNANA
08:00 13.6 9.0 74 LegendMM LegendMM   99.22     LegendNANA
09:00 13.6 8.8 72 LegendMM LegendMM   99.26     LegendNANA
10:00 13.4 8.6 73 LegendMM LegendMM   99.31     LegendNANA
11:00 13.4 8.7 73 LegendMM LegendMM   99.37     LegendNANA
12:00 14.3 8.2 67 LegendMM LegendMM   99.39     LegendNANA
13:00 15.0 8.1 64 LegendMM LegendMM   99.42     LegendNANA
14:00 15.5 7.5 59 LegendMM LegendMM   99.45     LegendNANA
15:00 16.0 7.5 57 LegendMM LegendMM   99.46     LegendNANA
16:00 16.8 6.3 50 LegendMM LegendMM   99.46     LegendNANA
17:00 17.4 5.4 45 LegendMM LegendMM   99.46     LegendNANA
18:00 16.8 7.5 54 LegendMM LegendMM   99.48     LegendNANA
19:00 15.1 8.6 65 LegendMM LegendMM   99.52     LegendNANA
20:00 15.8 8.0 60 LegendMM LegendMM   99.52     LegendNANA
21:00 13.8 8.1 69 LegendMM LegendMM   99.56     LegendNANA
22:00 11.0 7.2 77 LegendMM LegendMM   99.59     LegendNANA
23:00 7.1 4.3 82 LegendMM LegendMM   99.61     LegendNANA

Notes on Data Quality.

Legend

  • E = Estimated
  • M = Missing
  • NA = Not Available
  • ‡ = Partner data that is not subject to review by the National Climate Archives
Date modified: